Location: Newark
(35.8833°N, 14.5000°E)
Time: 02:51:42
(UTC+00:00)

ISS - Visible Passes

Search period start: 23 October 2019 00:00
Search period end: 02 November 2019 00:00
Orbit: 411 x 421 km, 51.6° (Epoch: 23 October)

Date Brightness Start Highest point End Pass type
(mag) Time Alt. Az. Time Alt. Az. Time Alt. Az.
23 Oct -1.0 03:59:48 10° S 04:02:16 19° SE 04:04:44 10° E visible
24 Oct -0.5 03:13:35 10° SE 03:13:55 10° SE 03:14:14 10° ESE visible
24 Oct -3.7 04:46:53 10° WSW 04:50:13 66° NW 04:53:34 10° NE visible
25 Oct -3.4 03:59:35 21° SSW 04:01:40 64° SE 04:05:00 10° NE visible
26 Oct -1.8 03:13:53 29° ESE 03:13:53 29° ESE 03:16:14 10° ENE visible
26 Oct -2.4 04:47:07 10° W 04:49:57 24° NNW 04:52:45 10° NNE visible
27 Oct -3.2 04:00:54 38° NW 04:01:15 39° NW 04:04:26 10° NE visible
28 Oct -1.4 03:14:47 20° NE 03:14:47 20° NE 03:15:59 10° NE visible
28 Oct -1.5 04:48:22 10° NW 04:49:51 12° NNW 04:51:19 10° N visible
29 Oct -1.8 04:01:27 17° NNW 04:01:27 17° NNW 04:03:21 10° NNE visible
30 Oct -0.7 03:15:04 10° NNE 03:15:04 10° NNE 03:15:08 10° NNE visible
